Flag for Puerto Rico Weather past 2 weeks in Caguas, Puerto Rico

Now
79 °F

Passing clouds.


Feels Like: 83 °F
Forecast: 76 / 92 °F
Wind: No wind

Location: Luis Munoz Marin

Current Time: Aug 31, 2015 at 5:24:03 AM

Latest Report: Aug 31, 2015 at 4:56 AM


Visibility: 10 mi

Pressure: 30.01 "Hg

Humidity: 88%

Dew point: 75 °F

Location of CaguasLocation

Historic Weather in Caguas — Graph

°F

Caguas temperature yesterday

Maximum temperature yesterday: 88 °F (at 12:56 PM)
Minimum temperature yesterday: 79 °F (at 5:56 AM)
Average temperature yesterday: 83 °F

Past Weeks' High & Low Weather Summary

 TemperatureHumidityPressure
High89 °F (Aug 16, 10:56 AM)100% (Aug 16, 2:56 PM)30.06 "Hg (Aug 16, 2:56 PM)
Low74 °F (Aug 17, 5:56 AM)60% (Aug 28, 6:56 AM)29.84 "Hg (Aug 27, 4:56 PM)
Average82 °F85%29.97 "Hg
* Reported Aug 16 3:56 AM — Aug 31 3:56 AM, Caguas, Weather by CustomWeather, © 2015

Note: Actual official high and low records may vary slightly from our data, if they occured in-between our weather recording intervals... More about our weather records

Advertising

Caguas weather history for previous 24 hours

 ConditionsComfort  
Time TempWeatherWind HumidityBarometerVisibility
3:56 AM
Mon, Aug 31
80 °FPassing clouds.No wind87%30.01 "Hg10 mi
2:56 AM80 °FPassing clouds.3 mph87%30.01 "Hg10 mi
1:56 AM81 °FPassing clouds.No wind82%30.03 "Hg10 mi
12:56 AM80 °FPassing clouds.3 mph87%30.03 "Hg10 mi
11:56 PM
Sun, Aug 30
81 °FPassing clouds.6 mph85%30.04 "Hg10 mi
10:56 PM82 °FPassing clouds.6 mph82%30.04 "Hg10 mi
9:56 PM82 °FPassing clouds.3 mph85%30.04 "Hg10 mi
8:56 PM82 °FPassing clouds.5 mph85%30.03 "Hg10 mi
7:56 PM83 °FPassing clouds.6 mph85%30.02 "Hg10 mi
6:56 PM83 °FScattered clouds.8 mph82%30.01 "Hg10 mi
5:56 PM84 °FScattered clouds.12 mph80%29.99 "Hg10 mi
4:56 PM85 °FScattered clouds.13 mph80%29.99 "Hg10 mi
3:56 PM86 °FBroken clouds.12 mph72%29.98 "Hg10 mi
2:56 PM86 °FBroken clouds.10 mph77%29.99 "Hg10 mi
1:56 PM86 °FScattered clouds.10 mph75%30.01 "Hg10 mi
12:56 PM88 °FScattered clouds.18 mph73%30.01 "Hg10 mi
11:56 AM87 °FBroken clouds.17 mph75%30.03 "Hg10 mi
10:56 AM85 °FPartly sunny.10 mph80%30.04 "Hg10 mi
9:56 AM83 °FBroken clouds.5 mph85%30.04 "Hg10 mi
8:56 AM81 °FBroken clouds.7 mph88%30.02 "Hg10 mi
7:56 AM80 °FBroken clouds.7 mph87%30.00 "Hg10 mi
6:56 AM79 °FLight rain. Partly cloudy.5 mph90%29.98 "Hg9 mi
5:56 AM79 °FThunderstorms. Fog.12 mph90%29.99 "Hg4 mi
Weather by CustomWeather, © 2015

See weather overviewHow to use our weather pages